TimeMST,TemperatureF,Dew PointF,Humidity,Sea Level PressureIn,VisibilityMPH,Wind Direction,Wind SpeedMPH,Gust SpeedMPH,PrecipitationIn,Events,Conditions,WindDirDegrees,DateUTC
12:53 AM,41.0,25.0,53,29.92,10.0,SE,3.5,-,N/A,,Clear,140,2014-02-19 07:53:00
1:53 AM,37.9,27.0,65,29.90,10.0,East,3.5,-,N/A,,Clear,90,2014-02-19 08:53:00
2:53 AM,37.9,26.1,62,29.89,10.0,SE,5.8,-,N/A,,Clear,130,2014-02-19 09:53:00
3:53 AM,37.0,26.1,65,29.86,10.0,ESE,6.9,-,N/A,,Clear,110,2014-02-19 10:53:00
4:53 AM,39.0,23.0,53,29.83,10.0,SE,12.7,-,N/A,,Clear,140,2014-02-19 11:53:00
5:53 AM,39.0,21.0,49,29.83,10.0,SSE,13.8,-,N/A,,Clear,150,2014-02-19 12:53:00
6:53 AM,35.1,21.0,57,29.83,10.0,East,6.9,-,N/A,,Clear,100,2014-02-19 13:53:00
7:53 AM,37.0,21.9,54,29.82,10.0,ESE,8.1,-,N/A,,Clear,120,2014-02-19 14:53:00
8:53 AM,43.0,23.0,45,29.77,10.0,SSE,5.8,-,N/A,,Clear,150,2014-02-19 15:53:00
9:53 AM,50.0,16.0,26,29.72,10.0,SSW,6.9,-,N/A,,Clear,210,2014-02-19 16:53:00
10:53 AM,53.1,14.0,21,29.66,10.0,SSW,6.9,-,N/A,,Clear,200,2014-02-19 17:53:00
11:53 AM,55.9,16.0,21,29.59,10.0,Variable,4.6,-,N/A,,Clear,0,2014-02-19 18:53:00
12:53 PM,57.9,16.0,19,29.52,10.0,North,-9999.0,-,N/A,,Clear,0,2014-02-19 19:53:00
1:53 PM,61.0,16.0,17,29.48,10.0,Calm,Calm,-,N/A,,Clear,0,2014-02-19 20:53:00
2:53 PM,63.0,16.0,16,29.44,10.0,West,5.8,-,N/A,,Clear,280,2014-02-19 21:53:00
3:48 PM,64.4,15.8,15,29.49,5.0,SSE,10.4,-,N/A,,Haze,150,2014-02-19 22:48:00
3:53 PM,64.0,16.0,16,29.40,10.0,South,10.4,-,N/A,,Clear,170,2014-02-19 22:53:00
4:53 PM,62.1,17.1,18,29.37,10.0,SE,8.1,-,N/A,,Clear,140,2014-02-19 23:53:00
5:53 PM,57.9,18.0,21,29.39,10.0,SSE,5.8,-,N/A,,Clear,150,2014-02-20 00:53:00
6:53 PM,54.0,19.0,25,29.39,10.0,South,6.9,-,N/A,,Clear,180,2014-02-20 01:53:00
7:53 PM,50.0,19.9,31,29.38,10.0,SSW,11.5,-,N/A,,Clear,210,2014-02-20 02:53:00
8:53 PM,52.0,23.0,32,29.37,10.0,WNW,12.7,-,N/A,,Scattered Clouds,290,2014-02-20 03:53:00
9:53 PM,55.0,28.9,37,29.34,10.0,SW,18.4,-,N/A,,Partly Cloudy,230,2014-02-20 04:53:00
10:13 PM,53.1,30.0,41,29.49,8.0,NW,21.9,-,N/A,,Mostly Cloudy,320,2014-02-20 05:13:00
10:23 PM,50.0,28.0,43,29.51,6.0,North,21.9,34.5,N/A,,Haze,350,2014-02-20 05:23:00
10:29 PM,48.0,30.0,50,29.52,1.0,North,34.5,42.6,N/A,,Haze,350,2014-02-20 05:29:00
10:36 PM,44.1,34.0,68,29.54,0.5,North,35.7,50.6,0.00,Rain,Light Rain,350,2014-02-20 05:36:00
10:42 PM,41.0,34.0,76,29.55,2.0,NNW,36.8,49.5,0.01,Rain,Rain,340,2014-02-20 05:42:00
10:49 PM,39.2,33.8,81,29.55,6.0,North,34.5,44.9,0.02,Rain,Rain,350,2014-02-20 05:49:00
10:53 PM,39.9,35.1,83,29.50,6.0,North,39.1,49.5,0.02,Rain,Rain,350,2014-02-20 05:53:00
11:06 PM,37.0,33.1,86,29.56,4.0,North,38.0,44.9,0.03,Snow,Light Snow,350,2014-02-20 06:06:00
11:19 PM,37.0,33.1,86,29.57,6.0,North,38.0,47.2,0.05,Snow,Light Snow,350,2014-02-20 06:19:00
11:53 PM,36.0,33.1,89,29.57,5.0,North,36.8,49.5,0.06,Snow,Light Snow,360,2014-02-20 06:53:00